KSF1-A (48930 NORAD) Tracking and Keplerian Element Data

This shows tracking and keplerian element data for the satellite.

Feedback or suggestion? Click here.




ElementValue
Catalog48930
NameKSF1-A
Epoch Orbit1395
Epoch Day269.06500939
Epoch Year2021
RAAN36.6276
Inclination97.5166
Eccentricity0.0014705
Argument of Perigee291.8461
Mean Anonmoly186.1396
Mean Motion15.13941127
Decay Rate2.855E-05
L11 48930U 21059BD 21269.06500939 .00002855 00000-0 16086-3 0 9997
L22 48930 97.5166 36.6276 0014705 291.8461 186.1396 15.13941127 13954

Live tracking and technical data element details for KSF1-A (NORAD 48930). KSF1-A can be tracked NOW for your location showing map with azimuth and elevation plus other details from your city location.

Track the satellite on the map from your city or location and see movement details for azimuth, elevation, latitude, longitude, range, height, and movement on the map or in text.







IsCatalogInMostPopularTable: catalog: 48930, numindb: 14
Update: records affected: 1



GetName: 48930 KSF1-A

Hit Count: updated at: Sun, 26 Sep 2021 15:52:34 GMT